Temp
96 96 96 95 95 95 96 97 98 96 95 95 94 95 92 88 81 81 82 84 87 90 97 92 90 93 94 92 98 94 90 91 95 99 97 97 93 79 77 76 78 77 76 77 77 78 78 78 78 79 79 79 78 78 78 78 78 78 77 77 77 77 77 77 76 76 76 75 74 74 75 75 76 76
94 95 95 96 95 96 96 97 98 96 94 95 95 92 88 88 84 83 78 81 88 90 95 96 89 89 92 95 93 94 92 87 95 98 98 98 95 77 78 77 76 76 76 76 76 77 78 77 77 77 77 77 77 77 77 77 77 77 76 76 76 75 75 75 75 76 75 74 74 74 75 75 76 77
93 92 93 93 93 94 95 95 97 96 96 95 95 94 93 91 89 85 81 77 85 91 88 93 96 93 94 97 95 97 99 92 96 98 97 98 83 76 83 76 76 75 74 75 75 76 75 76 75 76 76 76 76 76 75 75 75 75 75 75 74 73 73 73 74 75 75 74 74 74 74 75 75 76
95 92 91 91 91 93 93 94 95 95 95 95 95 94 93 91 87 84 81 78 79 88 91 91 91 94 93 91 92 93 98 97 85 98 97 95 82 90 93 77 77 76 75 75 75 73 74 74 74 75 75 75 75 75 74 73 73 73 73 72 71 70 71 72 74 74 75 75 75 74 74 75 75 76
93 91 91 91 91 93 92 93 95 96 96 95 95 94 93 92 91 88 83 80 80 86 91 91 91 93 94 94 93 93 94 97 98 95 98 97 99 98 100 90 76 75 74 74 73 73 73 73 73 74 74 74 73 73 72 70 70 70 70 70 70 69 69 71 73 75 74 75 75 74 74 75 75 75
92 92 90 90 92 92 92 93 95 95 96 97 96 95 94 92 89 86 82 83 80 80 87 88 92 94 97 92 95 93 94 96 96 97 98 100 99 100 100 93 88 73 76 74 73 73 72 71 72 73 73 72 72 71 70 68 67 68 68 68 67 69 69 68 70 72 73 74 74 74 74 75 75 75
91 91 90 91 92 96 93 93 94 96 95 96 94 94 95 92 93 91 85 83 83 83 84 89 90 92 93 91 92 93 95 95 96 94 96 99 102 103 100 100 96 74 75 74 74 73 72 72 72 72 71 71 70 69 68 66 66 66 66 65 66 67 67 66 67 69 71 72 74 74 74 74 74 75
91 90 90 92 93 93 91 91 92 93 94 93 92 93 92 91 91 91 90 88 86 85 83 86 88 92 90 93 93 96 96 97 96 97 96 97 98 100 101 100 100 81 73 75 74 74 72 71 70 69 69 69 67 67 66 66 65 64 64 64 65 65 64 64 64 65 66 68 69 72 73 73 74 74
91 90 90 93 92 92 91 91 93 94 92 93 93 92 92 91 90 91 90 88 86 84 84 84 86 85 86 82 83 84 81 85 92 94 94 96 95 95 99 101 99 79 72 74 73 72 73 72 70 70 70 68 68 66 66 65 65 64 63 62 64 64 64 64 63 64 63 64 65 67 70 71 72 72
92 92 90 92 93 92 91 92 92 91 91 92 92 92 91 91 90 87 87 88 84 82 82 80 80 82 83 80 79 80 81 82 84 87 91 94 94 92 92 95 99 99 94 92 83 73 73 70 68 71 69 69 68 67 66 66 65 64 63 61 63 64 63 62 62 62 63 63 63 64 66 69 69 70
93 93 93 90 93 92 92 92 92 91 92 92 91 90 89 91 89 88 87 81 80 79 79 80 81 81 83 81 79 82 81 79 80 80 82 80 84 89 90 90 95 95 93 86 76 80 81 77 78 67 68 68 67 68 67 67 66 65 63 62 63 63 62 62 62 61 62 62 62 62 62 63 66 69
95 94 95 94 91 89 92 92 92 91 90 91 89 86 86 85 84 85 87 83 81 80 82 82 81 82 82 82 83 83 82 82 79 82 80 79 81 84 90 90 89 92 92 93 87 78 77 75 71 67 68 69 68 68 70 68 68 65 64 63 64 64 62 62 61 61 61 61 61 61 61 61 62 65
92 93 91 96 91 86 84 85 88 88 87 87 86 87 88 86 84 84 83 83 81 79 80 80 82 82 82 84 82 82 79 77 75 75 76 73 75 81 87 88 92 90 91 93 93 86 83 85 83 84 84 82 79 76 73 74 71 65 64 63 64 64 63 62 61 61 61 61 61 61 61 60 60 61
94 94 95 96 90 86 87 88 88 87 85 86 90 90 89 85 84 82 82 82 83 82 81 82 83 83 83 85 84 81 79 77 76 74 74 74 73 77 86 85 83 84 89 88 85 89 90 85 83 83 87 88 84 82 79 73 71 66 64 64 64 63 63 62 62 61 61 61 61 60 60 60 60 59
89 91 92 93 88 84 86 88 84 83 84 84 83 83 84 85 86 85 82 82 83 81 81 83 83 83 83 81 83 82 80 76 74 73 75 76 77 79 80 78 80 82 86 84 84 84 88 86 83 85 87 86 84 82 74 65 66 64 64 64 64 63 64 63 63 62 61 61 61 61 60 60 60 59
87 84 86 87 88 89 87 84 80 79 78 80 81 82 82 81 82 82 84 83 82 82 82 81 83 84 82 82 84 84 80 77 76 75 76 78 77 78 81 81 80 85 88 84 83 84 85 86 85 83 85 84 82 77 68 65 64 64 64 64 63 63 63 63 63 62 62 62 62 61 61 62 61 60
86 85 84 85 86 87 84 80 81 79 81 80 79 80 81 81 80 74 73 76 83 86 82 82 82 83 84 83 84 85 81 81 77 78 79 79 78 84 81 81 83 84 87 85 83 83 84 84 81 82 84 83 81 76 67 65 65 64 64 63 63 64 64 63 62 63 62 61 60 59 60 61 61 61
88 86 82 80 81 85 85 83 81 79 80 80 80 82 84 85 85 80 75 74 74 80 85 84 82 83 84 82 84 84 83 80 78 78 79 82 84 83 82 83 83 85 90 85 84 82 85 85 82 81 83 85 82 79 68 64 64 64 63 63 63 63 63 63 62 62 61 61 60 59 58 58 59 59
87 86 84 82 81 82 83 86 84 82 82 80 78 78 79 81 81 84 87 85 86 84 86 87 86 86 87 86 86 84 81 79 77 77 79 82 85 85 86 83 83 85 87 87 84 79 85 90 85 80 82 85 81 78 65 64 65 64 64 63 64 63 63 63 62 62 61 61 60 60 58 57 59 58
85 86 85 82 80 81 83 84 77 78 79 79 78 77 79 78 79 82 78 70 75 79 79 85 88 89 84 80 84 83 83 80 79 80 82 84 84 84 81 79 81 82 88 87 84 82 84 89 87 86 85 84 81 79 77 66 66 66 65 64 63 62 62 62 62 62 62 62 61 60 59 56 57 58
87 87 85 84 82 81 81 78 70 69 75 76 76 75 77 78 80 84 81 70 70 68 66 64 65 64 64 65 64 65 67 77 82 84 83 82 83 80 77 76 79 80 84 84 82 82 81 86 86 86 89 87 81 79 80 77 66 65 65 64 63 62 62 62 62 61 62 62 61 60 61 57 60 61
85 85 84 83 82 79 82 69 65 66 73 74 74 75 75 76 77 80 82 85 77 67 66 67 67 67 67 66 67 68 67 68 78 84 80 84 83 80 79 75 76 79 81 79 80 79 83 87 86 83 85 86 89 88 79 79 73 64 64 62 61 62 63 62 62 63 62 62 62 61 60 59 63 68
84 84 83 81 81 81 74 61 61 62 70 73 74 74 75 75 77 80 82 81 74 77 79 79 78 75 73 77 79 80 74 79 83 84 84 84 81 78 78 76 75 75 77 78 79 76 82 83 86 82 80 79 87 89 86 82 79 79 78 74 72 62 62 61 62 61 61 62 62 61 58 59 63 80
83 84 83 80 70 63 58 57 56 58 59 68 73 74 75 75 74 78 79 77 77 79 81 80 83 83 81 81 81 81 83 84 84 85 86 86 84 81 80 81 80 75 74 78 77 76 82 83 81 83 81 76 77 83 87 85 84 87 85 83 84 66 63 63 63 58 60 60 60 61 60 57 61 77
78 79 81 77 64 59 59 56 55 55 57 61 69 74 75 77 74 74 76 78 78 77 77 78 80 80 79 79 77 76 76 78 77 77 80 84 84 82 80 83 77 74 73 75 72 78 77 80 79 79 79 79 81 80 81 82 83 86 84 83 82 83 82 80 78 76 61 59 57 56 58 59 58 67
80 80 80 75 64 57 58 56 54 53 55 58 67 72 64 62 64 73 77 78 79 77 77 79 77 76 74 73 73 74 74 72 71 72 76 79 82 82 81 79 77 73 72 75 71 78 75 77 76 76 77 75 77 77 76 79 85 85 84 84 83 83 82 82 82 82 81 81 78 73 70 60 61 60
78 80 80 77 65 56 53 52 52 53 54 61 69 59 57 59 61 68 75 77 76 72 74 75 75 74 72 70 70 72 71 71 71 71 73 76 77 77 78 78 76 74 75 77 78 77 75 75 77 74 72 73 71 74 76 77 81 83 83 84 84 84 85 82 80 81 80 79 80 65 57 57 57 60
77 77 75 70 55 52 49 50 52 54 58 64 56 54 56 58 63 69 72 73 74 73 73 72 72 72 71 70 69 69 69 69 69 70 72 73 75 75 75 75 76 77 77 78 78 76 75 73 76 75 73 71 70 71 72 78 80 80 79 82 82 84 84 82 80 80 79 78 78 79 80 78 74 72
74 65 56 53 54 54 53 53 54 59 63 59 58 57 57 62 68 68 70 72 74 72 72 72 71 71 71 69 67 66 66 67 68 68 69 73 75 77 76 76 76 77 81 80 77 76 75 74 73 73 72 72 72 73 74 73 75 77 78 76 77 80 81 81 80 79 77 77 76 77 78 77 77 77
62 58 57 56 56 59 61 67 73 73 72 66 65 65 67 69 68 68 69 71 71 71 71 72 70 68 66 65 65 66 65 64 65 68 70 71 72 73 73 72 74 77 79 79 79 77 76 75 73 71 71 71 73 72 73 73 73 76 77 77 77 78 80 79 78 79 76 74 74 75 78 78 78 76
70 69 69 69 64 63 64 63 64 66 69 72 73 71 71 70 70 70 70 70 70 70 70 65 63 64 65 66 66 64 64 63 65 68 69 71 71 72 72 71 72 73 77 80 80 78 77 75 74 72 68 69 71 72 73 73 71 73 76 78 76 72 76 78 78 78 75 74 74 75 76 77 78 79
65 66 67 65 69 72 72 73 75 74 73 72 70 70 69 69 69 69 70 68 66 66 65 64 64 64 64 63 63 64 64 66 67 70 70 70 70 72 72 69 68 70 72 75 78 76 76 76 74 72 71 69 67 70 71 72 72 74 75 75 75 76 77 77 76 76 73 73 72 73 74 76 77 79
64 67 72 73 73 72 74 73 73 72 71 71 71 70 69 68 67 66 66 65 64 64 64 63 64 64 65 65 67 66 65 65 66 70 69 70 70 71 72 71 70 69 68 69 72 75 75 75 74 73 71 71 71 70 69 69 73 75 74 74 74 73 76 77 75 73 72 71 70 72 72 74 77 78
61 67 72 76 76 76 76 75 72 71 70 69 69 68 65 67 66 66 66 65 65 66 65 66 66 66 65 64 63 63 64 67 69 69 68 69 71 70 69 69 68 69 68 68 70 71 71 71 71 72 73 72 73 71 70 70 70 72 73 73 73 72 73 74 73 72 72 71 70 70 70 73 76 78
67 71 75 76 76 75 76 74 72 71 69 68 68 67 67 67 66 65 66 66 65 64 64 63 63 63 64 63 65 66 67 68 69 69 70 70 69 70 70 69 68 67 67 68 69 70 69 69 69 69 69 69 68 70 68 68 69 70 72 72 73 71 71 72 71 71 71 71 72 68 69 72 73 76
75 76 72 71 72 72 72 71 71 71 69 69 68 67 67 67 68 69 69 68 68 65 64 63 63 62 63 63 65 67 67 67 67 68 66 66 69 70 72 70 68 68 68 68 69 70 70 69 68 67 66 68 68 67 63 65 64 70 69 69 70 69 70 69 69 70 71 71 70 69 68 68 70 72
70 71 71 70 70 70 69 69 69 69 69 69 69 69 68 68 68 69 69 68 70 68 68 67 65 63 63 63 63 62 63 64 64 65 66 68 69 70 70 70 70 69 68 69 70 70 70 69 69 68 67 67 68 69 65 68 63 63 71 68 68 69 68 67 67 67 70 69 69 70 69 68 68 71
69 70 69 68 68 68 67 67 67 66 66 67 68 69 69 69 68 67 68 67 65 65 64 64 64 65 66 65 65 66 67 68 69 69 69 69 68 67 68 68 68 69 68 69 70 70 70 69 69 68 66 65 65 67 66 69 69 66 64 68 67 68 69 67 66 66 66 69 69 69 69 67 68 71
70 69 68 67 67 67 65 64 64 64 64 63 62 62 63 64 64 65 66 66 65 64 64 65 64 63 64 63 64 65 66 66 66 65 66 67 67 66 66 65 65 67 67 68 69 70 70 68 67 65 65 64 63 63 63 63 64 70 65 57 67 69 69 67 66 67 66 66 67 68 69 70 71 66
70 70 69 69 68 67 66 65 63 61 61 61 60 60 59 59 61 62 62 62 63 63 63 62 62 62 64 64 64 67 65 64 64 65 64 65 65 64 64 63 63 64 65 66 67 69 69 67 64 63 63 64 65 66 66 66 68 69 69 62 58 65 67 67 66 65 65 66 66 65 66 68 67 69
70 69 69 69 68 68 67 66 65 62 61 60 60 59 59 59 59 60 61 61 61 60 61 61 61 61 61 62 62 63 62 62 62 62 62 62 63 63 62 62 62 64 63 63 65 66 65 64 65 63 64 64 65 67 64 63 63 68 67 66 58 58 60 64 68 66 64 66 65 64 63 64 64 64
71 70 70 69 68 68 67 65 65 63 61 60 60 60 60 60 59 60 60 59 59 59 60 60 61 61 61 62 63 63 62 61 61 61 61 61 60 60 60 60 60 60 59 59 60 61 63 65 66 65 64 64 64 61 60 61 62 64 65 68 67 58 57 58 60 62 65 64 64 62 62 63 64 62
70 70 69 69 69 68 68 67 66 65 63 63 62 62 61 60 60 60 60 58 58 58 58 58 58 58 58 59 60 60 61 61 61 61 61 61 60 60 60 61 61 61 61 61 64 64 65 65 65 65 64 63 63 62 59 61 61 61 62 64 66 66 65 58 56 57 57 54 56 59 61 61 59 55
70 69 69 69 69 68 67 67 66 66 66 65 63 63 62 61 59 59 60 60 60 59 60 59 59 59 58 58 58 59 58 57 58 57 57 57 58 59 59 59 59 60 61 61 61 62 64 63 63 63 62 61 62 60 60 60 60 62 61 62 63 64 66 69 66 59 59 57 55 55 54 56 58 58
70 70 69 68 67 68 67 67 66 66 65 65 64 63 62 62 61 60 60 59 59 59 58 59 59 59 59 59 59 59 59 58 58 58 58 59 60 60 60 60 60 60 60 60 59 60 61 61 63 64 63 63 63 63 63 62 61 61 61 61 62 64 66 66 65 65 64 64 59 56 56 56 57 57
MSLP
1016.80 1016.64 1016.60 1016.76 1016.72 1016.52 1016.24 1016.20 1015.96 1015.92 1016.04 1016.28 1016.40 1016.44 1017.16 1017.84 1019.28 1019.68 1019.40 1018.48 1018.08 1017.12 1015.92 1016.84 1016.04 1015.20 1015.08 1015.16 1014.64 1015.00 1015.24 1015.12 1014.60 1014.40 1014.28 1014.12 1014.40 1014.84 1014.92 1015.04 1015.04 1015.00 1014.92 1014.92 1014.96 1014.92 1014.96 1014.96 1014.92 1014.80 1014.68 1014.56 1014.44 1014.32 1014.16 1013.96 1013.80 1013.64 1013.48 1013.28 1013.12 1013.00 1012.88 1012.72 1012.64 1012.76 1012.92 1013.16 1013.32 1013.52 1013.72 1013.84 1013.92 1014.08
1016.80 1016.72 1016.68 1016.52 1016.68 1016.28 1016.24 1016.16 1015.84 1015.84 1016.04 1016.24 1016.24 1016.64 1017.20 1017.32 1018.28 1018.76 1019.92 1019.20 1017.56 1017.24 1015.88 1015.80 1016.56 1015.68 1015.36 1015.08 1015.00 1015.04 1015.04 1014.64 1014.52 1014.28 1014.12 1014.04 1014.28 1014.64 1014.76 1014.88 1014.92 1014.92 1014.88 1014.84 1014.88 1014.92 1014.92 1014.96 1014.96 1014.88 1014.76 1014.64 1014.52 1014.40 1014.28 1014.16 1014.00 1013.80 1013.64 1013.48 1013.32 1013.12 1012.96 1012.88 1012.76 1012.72 1012.88 1013.08 1013.24 1013.40 1013.56 1013.68 1013.76 1013.88
1016.76 1016.88 1016.92 1016.72 1016.80 1016.48 1016.40 1016.24 1016.04 1015.80 1015.92 1016.00 1016.00 1016.24 1016.32 1016.72 1017.00 1017.88 1018.84 1019.96 1017.72 1016.80 1017.44 1016.24 1015.36 1015.68 1015.28 1014.88 1015.12 1015.00 1014.36 1014.44 1014.24 1014.24 1014.16 1014.04 1014.28 1014.48 1014.52 1014.68 1014.80 1014.92 1014.96 1014.80 1014.80 1014.84 1014.84 1014.92 1014.92 1014.88 1014.80 1014.68 1014.56 1014.44 1014.36 1014.28 1014.16 1014.00 1013.80 1013.64 1013.52 1013.32 1013.16 1013.08 1013.00 1012.92 1012.92 1013.08 1013.24 1013.40 1013.52 1013.68 1013.72 1013.76
1016.44 1016.72 1016.96 1016.88 1016.88 1016.60 1016.48 1016.36 1016.16 1016.04 1015.80 1015.76 1016.00 1016.08 1016.28 1016.48 1017.04 1017.84 1018.60 1019.24 1019.00 1016.92 1016.64 1016.48 1016.04 1015.40 1015.48 1015.40 1015.44 1015.32 1014.64 1014.08 1014.20 1014.12 1014.20 1014.04 1014.16 1014.04 1013.92 1014.36 1014.60 1014.80 1014.84 1014.72 1014.72 1014.72 1014.76 1014.84 1014.92 1014.88 1014.80 1014.72 1014.64 1014.52 1014.40 1014.32 1014.20 1014.12 1013.96 1013.84 1013.68 1013.56 1013.40 1013.28 1013.16 1013.20 1013.16 1013.16 1013.28 1013.44 1013.60 1013.76 1013.88 1013.92
1016.52 1016.72 1016.88 1016.80 1016.64 1016.40 1016.68 1016.48 1016.16 1015.92 1015.72 1015.64 1015.76 1015.80 1016.04 1016.36 1016.36 1016.96 1017.88 1018.68 1018.64 1017.24 1016.08 1016.24 1016.08 1015.60 1015.40 1015.28 1015.08 1015.36 1015.24 1014.60 1014.08 1013.88 1013.72 1013.64 1013.68 1013.48 1013.20 1013.80 1014.32 1014.52 1014.64 1014.56 1014.60 1014.56 1014.68 1014.80 1014.92 1014.88 1014.88 1014.80 1014.68 1014.60 1014.52 1014.40 1014.28 1014.16 1014.08 1013.96 1013.80 1013.64 1013.56 1013.44 1013.40 1013.36 1013.40 1013.40 1013.44 1013.52 1013.60 1013.72 1013.80 1013.92
1016.68 1016.52 1016.84 1016.88 1016.56 1016.32 1016.52 1016.40 1016.20 1015.88 1015.68 1015.52 1015.68 1015.64 1015.72 1016.00 1016.28 1016.44 1017.40 1017.80 1018.28 1018.52 1016.84 1016.56 1015.72 1015.36 1014.68 1015.72 1014.80 1015.28 1015.28 1014.84 1014.48 1014.44 1014.08 1013.72 1013.40 1013.08 1012.96 1013.48 1014.08 1014.36 1014.40 1014.48 1014.52 1014.48 1014.68 1014.84 1014.92 1014.96 1014.96 1014.92 1014.84 1014.76 1014.64 1014.56 1014.40 1014.24 1014.16 1014.04 1013.88 1013.72 1013.56 1013.64 1013.60 1013.52 1013.52 1013.56 1013.60 1013.64 1013.64 1013.68 1013.84 1013.88
1016.52 1016.60 1016.64 1016.60 1016.36 1016.04 1016.16 1016.08 1015.96 1015.68 1015.72 1015.52 1015.64 1015.72 1015.52 1015.76 1015.72 1015.88 1016.64 1017.44 1017.84 1017.80 1017.40 1016.32 1016.24 1015.60 1015.52 1015.80 1015.56 1015.16 1015.00 1014.56 1014.44 1014.72 1014.48 1013.96 1013.36 1013.00 1013.08 1013.16 1013.44 1014.12 1014.20 1014.44 1014.40 1014.44 1014.68 1014.84 1014.92 1015.04 1015.04 1015.00 1015.00 1014.92 1014.84 1014.80 1014.68 1014.48 1014.32 1014.20 1014.00 1013.84 1013.68 1013.60 1013.68 1013.64 1013.60 1013.60 1013.64 1013.64 1013.72 1013.80 1013.88 1013.96
1016.32 1016.44 1016.40 1016.24 1016.04 1015.88 1016.16 1016.20 1016.00 1015.72 1015.56 1015.64 1015.68 1015.72 1015.60 1015.72 1015.84 1015.76 1015.88 1016.16 1016.92 1017.16 1017.68 1016.76 1016.68 1015.92 1016.04 1015.76 1015.48 1015.12 1014.80 1014.76 1014.64 1014.52 1014.32 1014.04 1013.84 1013.52 1013.20 1013.04 1013.00 1013.92 1014.24 1014.36 1014.28 1014.44 1014.68 1014.84 1014.96 1015.04 1015.08 1015.08 1015.08 1015.04 1015.04 1015.00 1014.92 1014.76 1014.60 1014.48 1014.32 1014.12 1013.88 1013.72 1013.64 1013.64 1013.60 1013.60 1013.60 1013.64 1013.72 1013.80 1013.88 1014.00
1016.00 1016.08 1016.24 1015.88 1015.76 1015.84 1016.20 1016.04 1015.92 1015.68 1015.80 1015.56 1015.64 1015.68 1015.60 1015.76 1015.88 1015.64 1015.76 1016.28 1016.64 1017.08 1017.36 1017.28 1016.72 1016.80 1016.84 1016.84 1016.68 1016.28 1017.20 1016.56 1015.32 1014.64 1014.60 1014.44 1014.20 1013.92 1013.52 1013.24 1013.08 1013.76 1014.20 1014.28 1014.40 1014.60 1014.80 1014.88 1015.00 1015.08 1015.12 1015.12 1015.08 1015.08 1015.08 1015.12 1015.04 1014.92 1014.76 1014.68 1014.64 1014.48 1014.28 1014.00 1013.76 1013.60 1013.48 1013.48 1013.52 1013.56 1013.64 1013.76 1013.88 1014.00
1015.64 1015.76 1015.92 1015.68 1015.52 1015.72 1015.96 1015.92 1015.64 1015.56 1015.76 1015.64 1015.60 1015.60 1015.48 1015.52 1015.72 1016.16 1016.20 1016.04 1016.64 1017.08 1017.24 1017.72 1017.84 1017.20 1017.28 1017.12 1016.92 1016.52 1016.52 1017.20 1016.96 1016.20 1015.20 1014.60 1014.32 1014.40 1014.52 1013.96 1013.40 1013.36 1013.88 1014.04 1014.56 1014.80 1014.84 1014.96 1015.04 1015.04 1015.12 1015.16 1015.12 1015.08 1015.16 1015.16 1015.12 1015.00 1014.84 1014.72 1014.72 1014.72 1014.60 1014.40 1014.12 1013.80 1013.56 1013.40 1013.40 1013.52 1013.60 1013.72 1013.88 1014.04
1015.24 1015.28 1015.40 1015.68 1015.44 1015.40 1015.48 1015.60 1015.56 1015.56 1015.52 1015.56 1015.60 1015.64 1015.80 1015.56 1015.80 1016.00 1016.16 1016.64 1016.88 1017.20 1017.52 1017.40 1017.32 1017.40 1016.84 1017.00 1017.56 1016.84 1016.64 1016.64 1016.56 1016.96 1016.92 1017.00 1015.92 1014.92 1014.64 1014.64 1013.80 1013.64 1014.00 1013.56 1013.92 1014.12 1014.32 1014.76 1014.88 1015.04 1015.12 1015.12 1015.08 1015.12 1015.16 1015.20 1015.12 1015.04 1014.92 1014.84 1014.80 1014.76 1014.72 1014.56 1014.40 1014.16 1013.88 1013.68 1013.56 1013.56 1013.60 1013.64 1013.72 1013.84
1014.80 1014.80 1014.84 1014.96 1015.44 1015.88 1015.28 1015.28 1015.32 1015.48 1015.68 1015.36 1015.76 1016.12 1016.20 1016.04 1016.28 1016.36 1016.28 1016.80 1017.08 1017.24 1017.16 1017.20 1017.36 1017.08 1017.04 1016.76 1016.52 1016.52 1016.60 1016.88 1016.84 1016.68 1017.44 1017.88 1017.16 1016.24 1014.52 1014.36 1014.52 1013.92 1013.84 1013.88 1014.32 1014.44 1014.72 1014.92 1014.96 1015.08 1015.08 1015.08 1015.12 1015.12 1015.12 1015.20 1015.16 1015.16 1015.08 1014.96 1014.84 1014.88 1014.84 1014.72 1014.56 1014.40 1014.20 1013.96 1013.84 1013.76 1013.76 1013.80 1013.84 1013.88
1014.96 1014.80 1015.16 1014.56 1014.92 1015.36 1015.84 1015.60 1015.36 1015.56 1015.68 1015.96 1016.16 1015.96 1015.72 1015.96 1016.36 1016.52 1016.68 1016.80 1017.04 1017.28 1017.32 1017.32 1016.92 1016.96 1016.84 1016.64 1016.80 1016.92 1017.12 1017.48 1017.64 1017.40 1017.60 1018.56 1018.28 1016.56 1015.20 1014.56 1013.92 1014.08 1014.08 1013.84 1013.88 1014.56 1014.92 1014.80 1014.76 1014.76 1014.88 1014.92 1014.80 1015.12 1015.24 1015.24 1015.28 1015.36 1015.24 1015.04 1014.96 1014.96 1014.96 1014.88 1014.72 1014.60 1014.48 1014.28 1014.08 1014.00 1013.92 1013.92 1013.96 1014.04
1014.84 1014.68 1014.56 1014.28 1014.76 1015.32 1015.32 1015.28 1015.36 1015.32 1015.20 1015.20 1015.28 1015.48 1015.64 1016.04 1016.32 1016.60 1016.76 1016.80 1016.76 1016.96 1017.24 1017.12 1016.80 1016.84 1016.76 1016.44 1016.32 1016.80 1016.76 1016.80 1017.00 1017.28 1017.36 1018.24 1018.44 1017.52 1015.56 1015.32 1015.24 1014.84 1014.24 1014.60 1014.84 1014.28 1014.04 1014.68 1014.84 1014.76 1014.68 1014.68 1014.92 1015.20 1015.44 1015.76 1015.72 1015.68 1015.44 1015.20 1015.08 1015.04 1015.04 1015.00 1014.88 1014.76 1014.68 1014.56 1014.40 1014.28 1014.16 1014.08 1014.04 1014.04
1015.32 1015.20 1014.96 1014.68 1015.04 1015.56 1015.52 1015.32 1015.68 1015.88 1015.16 1015.16 1015.28 1015.32 1015.44 1015.60 1015.88 1016.28 1016.60 1016.56 1016.44 1016.88 1016.92 1016.48 1016.44 1016.44 1016.40 1016.64 1016.24 1016.20 1016.40 1016.64 1017.00 1017.04 1016.80 1017.28 1017.68 1017.24 1016.80 1017.24 1015.68 1014.40 1014.56 1014.96 1015.00 1015.04 1014.08 1014.28 1015.08 1014.84 1014.80 1015.00 1015.16 1015.40 1015.96 1016.08 1015.96 1015.84 1015.68 1015.48 1015.32 1015.20 1015.12 1015.08 1015.00 1014.88 1014.80 1014.72 1014.64 1014.52 1014.40 1014.32 1014.24 1014.20
1015.44 1015.60 1015.56 1015.56 1015.64 1015.48 1015.44 1015.68 1016.20 1016.84 1016.92 1016.40 1016.04 1015.72 1015.56 1015.60 1015.60 1015.52 1015.88 1016.24 1016.36 1016.32 1016.44 1016.44 1016.16 1016.08 1016.32 1016.12 1015.80 1015.88 1016.16 1016.60 1016.56 1016.60 1016.76 1016.76 1017.12 1017.04 1016.24 1016.12 1016.36 1014.96 1014.16 1015.04 1015.32 1015.16 1014.48 1014.32 1014.84 1015.12 1015.08 1015.20 1015.40 1015.76 1016.00 1016.08 1016.08 1016.00 1015.84 1015.68 1015.56 1015.44 1015.32 1015.24 1015.16 1015.08 1014.96 1014.88 1014.80 1014.72 1014.68 1014.56 1014.48 1014.40
1015.32 1015.44 1015.56 1015.52 1015.40 1015.36 1015.64 1015.72 1016.00 1016.32 1015.84 1015.68 1016.12 1016.32 1016.04 1015.64 1015.60 1015.64 1015.52 1015.32 1015.36 1015.28 1015.76 1015.96 1015.84 1015.76 1015.64 1015.76 1015.48 1015.24 1015.64 1015.64 1016.28 1016.12 1016.24 1016.36 1016.64 1015.64 1015.96 1015.80 1015.64 1015.04 1014.20 1014.72 1015.28 1015.44 1014.96 1014.72 1015.20 1015.32 1015.08 1015.16 1015.40 1015.76 1015.88 1015.96 1016.04 1016.08 1016.00 1015.84 1015.72 1015.64 1015.52 1015.44 1015.36 1015.28 1015.20 1015.12 1015.04 1014.96 1014.92 1014.88 1014.76 1014.64
1014.88 1015.16 1015.56 1015.68 1015.52 1015.08 1015.04 1015.40 1016.00 1016.28 1016.04 1015.96 1016.08 1016.00 1015.76 1015.60 1015.48 1015.52 1015.32 1015.16 1015.12 1015.00 1015.00 1015.16 1015.60 1015.04 1014.88 1015.40 1015.04 1014.80 1014.88 1015.60 1016.04 1016.00 1015.96 1015.60 1015.64 1015.56 1015.68 1015.20 1015.12 1014.68 1014.08 1014.96 1015.20 1015.60 1014.92 1014.52 1015.12 1015.44 1015.12 1014.96 1015.32 1015.56 1015.84 1015.84 1015.84 1016.00 1016.04 1015.92 1015.84 1015.76 1015.68 1015.60 1015.52 1015.44 1015.40 1015.32 1015.24 1015.20 1015.12 1015.08 1015.04 1014.96
1014.88 1014.88 1015.00 1015.24 1015.44 1015.32 1015.20 1015.00 1015.16 1015.56 1015.80 1016.04 1016.08 1016.12 1016.24 1016.12 1015.80 1015.20 1014.80 1014.96 1015.08 1015.16 1014.76 1014.52 1014.52 1014.44 1014.32 1014.40 1014.36 1014.44 1014.68 1015.04 1015.20 1015.20 1015.36 1015.28 1015.08 1014.84 1014.48 1014.88 1014.92 1014.68 1014.28 1014.36 1014.92 1016.20 1014.92 1013.80 1014.60 1015.28 1015.08 1015.04 1015.32 1015.44 1015.96 1015.76 1015.60 1015.76 1015.88 1015.84 1015.80 1015.80 1015.76 1015.68 1015.60 1015.52 1015.48 1015.44 1015.40 1015.36 1015.28 1015.20 1015.20 1015.16
1014.84 1014.60 1014.64 1014.84 1015.12 1015.24 1015.20 1015.00 1015.08 1015.28 1015.56 1015.88 1016.24 1016.40 1016.24 1016.68 1016.60 1015.64 1015.56 1015.36 1014.64 1014.76 1015.00 1014.40 1013.92 1013.88 1013.96 1013.92 1014.00 1014.12 1014.32 1014.56 1014.56 1014.60 1014.56 1014.56 1014.72 1014.88 1015.48 1015.96 1015.64 1015.40 1014.40 1014.32 1015.00 1015.60 1015.04 1013.92 1014.44 1014.44 1014.44 1014.76 1015.20 1015.32 1015.60 1015.68 1015.32 1015.44 1015.60 1015.68 1015.68 1015.72 1015.72 1015.68 1015.64 1015.56 1015.48 1015.44 1015.40 1015.36 1015.32 1015.28 1015.24 1015.24
1014.36 1014.32 1014.40 1014.60 1014.80 1015.08 1015.40 1015.40 1015.36 1015.44 1015.48 1015.84 1016.16 1016.32 1016.32 1016.20 1016.12 1015.40 1014.88 1014.24 1014.32 1014.56 1014.48 1014.20 1013.92 1013.96 1014.00 1014.04 1014.16 1014.20 1014.20 1014.12 1014.04 1014.32 1014.80 1015.12 1014.88 1015.40 1016.16 1016.44 1016.24 1015.92 1015.12 1015.00 1015.04 1015.32 1015.52 1014.40 1014.40 1014.76 1014.04 1014.16 1014.80 1015.24 1015.24 1015.28 1015.32 1015.24 1015.44 1015.56 1015.56 1015.52 1015.60 1015.64 1015.64 1015.56 1015.48 1015.40 1015.36 1015.24 1015.12 1015.16 1015.16 1015.12
1014.20 1014.08 1014.12 1014.32 1014.64 1015.20 1015.12 1015.36 1015.64 1015.68 1015.64 1015.76 1015.84 1016.00 1016.08 1015.96 1015.92 1015.56 1015.16 1014.28 1014.32 1014.48 1014.88 1014.48 1014.08 1013.88 1013.76 1013.80 1014.08 1014.48 1014.36 1014.08 1013.76 1014.28 1015.20 1014.60 1014.64 1015.40 1015.60 1016.40 1016.32 1015.96 1015.60 1015.68 1015.12 1015.52 1015.16 1014.44 1014.36 1015.00 1014.52 1014.16 1013.88 1013.92 1014.80 1014.84 1015.16 1015.32 1015.40 1015.48 1015.52 1015.48 1015.48 1015.52 1015.56 1015.52 1015.40 1015.36 1015.32 1015.24 1015.08 1014.80 1014.52 1014.68
1014.16 1014.08 1014.08 1014.28 1014.40 1014.60 1014.92 1015.20 1015.40 1015.68 1015.72 1015.56 1015.36 1015.52 1015.72 1015.68 1015.68 1015.00 1014.60 1014.48 1014.32 1014.20 1014.36 1014.40 1014.28 1014.24 1014.00 1013.76 1013.88 1013.96 1013.88 1013.72 1013.64 1013.68 1014.04 1014.00 1014.68 1015.48 1015.52 1015.80 1016.24 1016.60 1016.40 1015.80 1015.28 1016.08 1015.12 1015.00 1014.60 1015.08 1015.60 1015.76 1014.12 1013.64 1014.08 1014.52 1014.80 1014.92 1014.96 1015.24 1015.36 1015.40 1015.40 1015.44 1015.56 1015.56 1015.48 1015.32 1015.32 1015.24 1015.16 1014.92 1014.56 1014.20
1014.36 1013.96 1014.04 1014.24 1014.64 1014.96 1015.16 1015.36 1015.56 1015.80 1015.92 1015.72 1015.24 1015.08 1015.32 1015.52 1015.60 1014.96 1014.96 1014.76 1014.68 1014.32 1013.92 1014.04 1013.72 1013.60 1013.52 1013.48 1013.60 1013.56 1013.56 1013.56 1013.60 1013.60 1013.52 1013.60 1014.00 1014.64 1014.92 1014.88 1015.24 1016.20 1016.56 1015.84 1015.48 1016.04 1015.32 1015.04 1015.48 1015.12 1015.60 1016.44 1016.44 1014.84 1014.16 1014.32 1014.24 1014.04 1014.36 1014.64 1014.80 1015.28 1015.32 1015.40 1015.56 1015.68 1015.56 1015.40 1015.36 1015.24 1015.24 1015.20 1014.88 1014.64
1015.00 1014.76 1014.36 1014.68 1015.36 1015.28 1015.28 1015.32 1015.36 1015.36 1015.52 1015.76 1015.48 1015.12 1015.04 1014.92 1014.92 1014.84 1014.76 1014.32 1013.84 1013.92 1013.96 1014.00 1013.72 1013.72 1013.64 1013.68 1013.76 1013.76 1014.00 1014.04 1014.16 1014.20 1013.92 1013.60 1013.68 1013.96 1014.40 1014.40 1015.28 1016.04 1016.28 1016.00 1015.60 1015.76 1016.20 1015.72 1015.96 1015.84 1015.84 1015.96 1015.64 1015.56 1015.04 1014.84 1014.36 1014.12 1014.36 1014.56 1014.88 1014.72 1014.88 1014.92 1014.96 1015.32 1015.60 1015.44 1015.36 1015.20 1015.32 1015.32 1015.28 1015.08
1014.68 1014.56 1014.44 1015.04 1015.52 1015.52 1015.24 1015.16 1015.12 1015.16 1015.28 1015.36 1015.32 1014.88 1014.80 1014.64 1014.60 1014.52 1014.12 1013.76 1013.56 1013.84 1013.96 1013.64 1013.84 1013.92 1014.08 1014.12 1014.04 1014.08 1014.16 1014.28 1014.36 1014.72 1014.76 1014.28 1013.96 1013.84 1014.04 1014.40 1015.00 1015.96 1016.44 1015.92 1015.72 1015.92 1016.32 1016.32 1016.44 1016.56 1016.44 1016.60 1016.32 1016.08 1016.08 1015.52 1014.48 1014.20 1014.40 1014.44 1014.64 1014.56 1014.76 1014.84 1014.92 1014.92 1014.96 1015.04 1015.08 1015.04 1015.28 1015.44 1015.44 1015.36
1015.00 1014.64 1014.56 1014.76 1015.16 1015.24 1015.24 1015.20 1015.16 1015.20 1015.20 1015.08 1014.80 1014.76 1014.72 1014.60 1014.48 1014.40 1014.00 1013.72 1013.76 1014.04 1014.04 1013.84 1014.00 1013.92 1014.28 1014.52 1014.36 1014.20 1014.48 1014.52 1014.32 1014.36 1014.80 1014.76 1014.72 1014.68 1014.52 1014.44 1014.68 1015.36 1015.76 1015.84 1015.88 1016.08 1016.36 1016.64 1016.36 1016.80 1017.16 1016.96 1017.16 1016.64 1016.20 1015.96 1015.16 1014.52 1014.56 1014.48 1014.52 1014.44 1014.28 1014.80 1015.04 1015.08 1015.24 1015.32 1015.12 1015.12 1015.36 1015.48 1015.64 1015.60
1015.24 1015.12 1015.20 1015.40 1015.52 1015.44 1015.32 1015.24 1015.08 1014.96 1014.88 1014.76 1014.68 1014.68 1014.60 1014.52 1014.44 1014.20 1013.92 1013.72 1013.64 1013.76 1013.84 1013.92 1013.92 1013.92 1013.88 1014.20 1014.28 1014.44 1014.48 1014.52 1014.64 1014.72 1014.64 1014.92 1015.12 1015.20 1015.20 1015.04 1015.08 1015.28 1015.60 1015.84 1016.04 1016.20 1016.44 1016.76 1016.56 1016.60 1016.96 1017.20 1017.32 1017.20 1016.96 1015.80 1015.36 1015.20 1015.36 1014.84 1015.00 1014.64 1014.56 1014.88 1015.12 1015.12 1015.32 1015.52 1015.40 1015.20 1015.16 1015.36 1015.44 1015.56
1015.68 1015.72 1015.72 1015.64 1015.52 1015.40 1015.24 1015.08 1014.96 1014.68 1014.52 1014.56 1014.56 1014.48 1014.40 1014.32 1014.12 1013.96 1013.88 1013.60 1013.44 1013.64 1013.60 1013.52 1013.68 1013.84 1013.88 1014.00 1014.40 1014.52 1014.52 1014.76 1015.24 1015.12 1015.36 1015.20 1015.28 1015.36 1015.32 1015.28 1015.28 1015.36 1015.40 1015.80 1016.08 1016.28 1016.52 1016.72 1016.88 1016.88 1017.00 1017.00 1017.08 1016.80 1016.68 1016.68 1016.24 1015.92 1015.56 1015.88 1015.80 1015.16 1015.08 1015.04 1015.24 1015.36 1015.60 1015.76 1015.80 1015.64 1015.52 1015.48 1015.36 1015.36
1016.00 1015.80 1015.64 1015.52 1015.40 1015.24 1015.08 1014.92 1014.68 1014.64 1014.56 1014.48 1014.36 1014.24 1014.08 1014.00 1013.88 1013.76 1013.72 1013.52 1013.40 1013.44 1013.32 1013.36 1013.56 1014.00 1014.44 1014.84 1015.08 1014.84 1014.80 1015.04 1015.56 1015.64 1015.80 1015.56 1015.72 1015.68 1015.76 1015.76 1015.76 1015.60 1015.64 1015.80 1015.92 1016.20 1016.36 1016.60 1016.92 1017.08 1017.12 1016.96 1016.80 1016.88 1016.64 1016.60 1016.56 1016.12 1015.84 1015.88 1015.72 1015.48 1015.12 1015.24 1015.44 1015.32 1015.56 1016.00 1016.04 1015.88 1015.48 1015.36 1015.28 1015.44
1015.88 1015.64 1015.44 1015.28 1015.16 1015.08 1014.88 1014.88 1014.80 1014.68 1014.44 1014.28 1014.20 1014.04 1013.88 1013.72 1013.56 1013.40 1013.36 1013.36 1013.36 1013.24 1013.36 1014.08 1014.48 1014.64 1014.76 1015.00 1015.32 1015.72 1015.56 1015.56 1015.56 1015.80 1015.96 1015.68 1015.72 1015.68 1015.64 1015.72 1015.96 1016.20 1016.04 1015.68 1015.84 1016.24 1016.44 1016.68 1016.84 1017.00 1017.32 1017.16 1016.92 1016.80 1016.64 1016.68 1016.80 1016.48 1015.88 1015.56 1015.88 1016.56 1015.88 1015.48 1015.40 1015.40 1015.72 1016.00 1016.04 1015.84 1015.56 1015.44 1015.16 1014.96
1016.20 1015.84 1015.40 1015.20 1015.04 1014.84 1014.64 1014.60 1014.48 1014.48 1014.44 1014.52 1014.52 1014.36 1014.24 1014.12 1013.92 1013.76 1013.64 1013.68 1013.76 1013.92 1014.20 1014.52 1014.76 1015.12 1015.24 1015.44 1015.60 1015.84 1016.08 1016.04 1015.88 1015.72 1015.76 1015.88 1016.00 1015.88 1015.92 1016.24 1016.64 1016.52 1016.48 1016.36 1016.08 1016.24 1016.36 1016.48 1016.76 1016.88 1017.04 1017.20 1017.28 1016.96 1016.80 1016.76 1016.68 1016.28 1015.96 1015.88 1015.92 1015.84 1015.72 1015.68 1015.72 1015.76 1016.04 1016.20 1016.24 1016.08 1015.84 1015.56 1015.40 1015.04
1016.20 1015.76 1015.28 1014.96 1014.76 1014.88 1014.72 1014.80 1014.92 1015.00 1014.92 1014.88 1014.84 1014.76 1014.64 1014.60 1014.48 1014.40 1014.40 1014.56 1014.64 1014.60 1014.60 1015.00 1015.24 1015.60 1015.80 1016.00 1016.04 1016.16 1016.24 1016.44 1016.28 1015.88 1015.96 1016.00 1016.04 1015.88 1015.76 1016.28 1016.76 1017.08 1017.32 1017.20 1016.88 1016.56 1016.40 1016.52 1016.56 1016.76 1016.92 1016.92 1016.92 1016.96 1017.12 1017.04 1016.40 1016.08 1016.28 1016.28 1016.28 1016.28 1015.96 1015.80 1015.96 1016.24 1016.28 1016.40 1016.44 1016.16 1015.96 1015.60 1015.16 1015.00
1016.64 1015.84 1015.36 1014.84 1014.68 1014.60 1014.52 1014.80 1015.16 1015.28 1015.28 1015.32 1015.28 1015.28 1015.16 1015.04 1015.04 1015.00 1015.00 1015.00 1015.00 1014.88 1014.92 1015.08 1015.32 1015.64 1015.96 1016.40 1016.60 1016.80 1016.72 1016.56 1016.28 1016.12 1016.00 1016.12 1015.96 1016.12 1016.32 1016.60 1017.04 1017.24 1017.44 1017.44 1017.16 1016.92 1016.80 1016.72 1016.68 1016.64 1016.56 1016.60 1016.56 1016.80 1016.88 1016.96 1016.84 1016.56 1016.56 1016.52 1016.40 1016.44 1016.28 1016.20 1016.24 1016.36 1016.40 1016.44 1016.40 1016.36 1016.24 1015.76 1015.28 1015.04
1015.96 1015.48 1014.96 1014.72 1014.64 1014.68 1014.72 1015.00 1015.32 1015.40 1015.56 1015.64 1015.68 1015.72 1015.60 1015.52 1015.48 1015.48 1015.48 1015.48 1015.40 1015.40 1015.44 1015.56 1015.72 1015.96 1016.28 1016.68 1016.68 1016.72 1016.64 1016.52 1016.40 1016.36 1016.12 1016.12 1016.28 1016.40 1016.44 1016.76 1017.16 1017.40 1017.52 1017.48 1017.20 1016.96 1016.88 1016.84 1016.88 1016.84 1016.60 1016.60 1016.92 1016.64 1016.72 1016.96 1017.08 1016.88 1016.76 1016.60 1016.60 1016.80 1016.76 1016.60 1016.72 1016.64 1016.52 1016.20 1016.12 1016.56 1016.32 1015.88 1015.68 1015.44
1015.20 1015.04 1015.52 1015.64 1015.52 1015.48 1015.52 1015.64 1015.64 1015.68 1015.76 1015.80 1015.84 1015.92 1015.92 1015.88 1015.72 1015.72 1015.84 1015.76 1015.68 1015.80 1015.84 1016.04 1016.24 1016.44 1016.60 1016.80 1016.96 1016.88 1016.72 1016.64 1016.56 1016.44 1016.60 1016.72 1016.64 1016.48 1016.44 1016.80 1017.12 1017.32 1017.40 1017.36 1017.20 1016.92 1016.88 1017.00 1017.08 1017.24 1017.20 1016.68 1016.48 1016.68 1017.52 1017.08 1017.08 1017.04 1017.04 1017.00 1016.96 1017.04 1017.04 1017.08 1016.96 1016.72 1016.44 1016.24 1016.32 1016.52 1016.48 1016.36 1016.16 1016.04
1016.28 1016.16 1016.20 1016.24 1016.16 1016.20 1016.32 1016.24 1016.24 1016.24 1016.12 1016.00 1015.92 1015.84 1015.92 1016.16 1016.20 1016.16 1016.20 1016.00 1015.96 1016.00 1016.16 1016.24 1016.48 1016.56 1016.96 1017.32 1017.28 1017.08 1016.96 1016.88 1016.84 1016.72 1016.64 1016.56 1016.60 1016.68 1016.84 1016.88 1017.04 1017.20 1017.28 1017.16 1017.04 1016.92 1016.88 1017.12 1017.16 1017.20 1017.24 1016.92 1016.56 1016.12 1017.00 1017.12 1017.16 1017.12 1017.00 1017.28 1017.20 1017.20 1017.32 1017.28 1017.20 1016.96 1016.64 1016.60 1016.52 1016.32 1016.36 1016.44 1016.48 1016.16
1016.72 1016.68 1016.76 1016.80 1016.88 1016.84 1016.92 1016.92 1016.84 1016.84 1016.76 1016.48 1016.28 1016.16 1016.32 1016.48 1016.60 1016.64 1016.52 1016.60 1016.76 1016.76 1016.80 1016.80 1016.84 1016.88 1017.04 1017.08 1017.12 1017.12 1016.96 1016.68 1016.56 1016.68 1016.60 1016.72 1017.08 1017.28 1017.32 1017.40 1017.32 1017.32 1017.28 1017.12 1017.00 1016.96 1017.00 1017.20 1017.24 1017.40 1017.52 1017.44 1017.16 1016.56 1016.84 1016.80 1016.88 1017.12 1017.04 1017.08 1017.32 1017.28 1017.12 1017.28 1017.36 1017.36 1017.20 1016.84 1016.68 1016.56 1016.56 1016.72 1016.48 1016.16
1016.88 1017.00 1017.08 1017.16 1017.24 1017.28 1017.40 1017.52 1017.52 1017.48 1017.40 1017.40 1017.44 1017.44 1017.40 1017.32 1017.28 1017.12 1017.08 1017.20 1017.32 1017.36 1017.24 1017.20 1017.28 1017.32 1017.36 1017.40 1017.32 1017.32 1017.28 1017.24 1017.20 1017.24 1017.36 1017.44 1017.64 1017.88 1017.80 1017.84 1017.92 1017.60 1017.52 1017.36 1017.12 1016.96 1017.08 1017.28 1017.56 1017.88 1017.96 1018.00 1017.88 1017.72 1017.72 1017.68 1017.40 1016.84 1016.84 1016.96 1017.12 1017.12 1017.04 1017.40 1017.48 1017.36 1017.40 1017.28 1017.08 1016.96 1016.80 1016.36 1016.12 1015.88
1017.12 1017.08 1017.24 1017.32 1017.44 1017.52 1017.60 1017.76 1018.08 1018.20 1018.12 1018.16 1018.24 1018.32 1018.32 1018.24 1018.08 1017.96 1017.92 1017.96 1017.96 1017.92 1017.88 1018.00 1017.96 1017.80 1017.76 1017.80 1017.68 1017.48 1017.64 1017.76 1017.80 1017.84 1018.08 1018.20 1018.24 1018.32 1018.32 1018.44 1018.32 1018.04 1017.76 1017.64 1017.44 1017.24 1017.28 1017.64 1018.16 1018.40 1018.48 1018.36 1018.12 1017.88 1017.64 1017.48 1017.04 1016.68 1016.84 1017.12 1017.04 1017.12 1017.24 1017.32 1017.44 1017.56 1017.44 1017.36 1017.36 1017.24 1017.00 1016.68 1016.60 1016.24
1017.36 1017.48 1017.56 1017.64 1017.72 1017.72 1017.84 1018.00 1018.24 1018.40 1018.52 1018.60 1018.68 1018.68 1018.68 1018.68 1018.64 1018.72 1018.64 1018.60 1018.60 1018.56 1018.52 1018.52 1018.52 1018.56 1018.60 1018.56 1018.52 1018.48 1018.52 1018.56 1018.60 1018.72 1018.80 1018.72 1018.60 1018.56 1018.68 1018.68 1018.44 1018.08 1018.08 1017.96 1017.84 1017.72 1017.96 1018.36 1018.40 1018.40 1018.44 1018.36 1018.08 1017.76 1017.64 1017.40 1017.00 1016.20 1016.48 1017.12 1017.12 1017.12 1017.08 1017.04 1017.24 1017.36 1017.48 1017.36 1017.36 1017.36 1017.20 1017.00 1016.88 1016.96
1017.44 1017.64 1017.80 1017.88 1018.00 1018.08 1018.20 1018.36 1018.44 1018.60 1018.80 1018.96 1018.96 1019.00 1019.00 1019.04 1019.20 1019.16 1019.12 1019.16 1019.16 1019.16 1019.12 1019.12 1019.12 1019.12 1019.12 1019.12 1019.00 1018.92 1019.04 1019.12 1019.12 1019.08 1019.08 1019.12 1019.12 1019.00 1018.92 1018.80 1018.76 1018.64 1018.68 1018.60 1018.48 1018.52 1018.40 1018.28 1018.24 1018.28 1018.24 1018.16 1017.96 1018.00 1017.72 1017.36 1017.16 1017.00 1016.84 1016.72 1016.96 1017.24 1017.20 1017.12 1017.12 1017.16 1017.36 1017.52 1017.60 1017.56 1017.48 1017.16 1017.12 1017.16
1017.80 1017.92 1018.04 1018.08 1018.20 1018.36 1018.44 1018.56 1018.64 1018.76 1018.92 1018.96 1019.04 1019.08 1019.16 1019.36 1019.40 1019.44 1019.48 1019.60 1019.64 1019.72 1019.88 1019.96 1019.96 1019.92 1019.88 1019.76 1019.68 1019.56 1019.40 1019.40 1019.40 1019.36 1019.32 1019.32 1019.20 1019.04 1018.84 1018.72 1018.76 1018.80 1018.76 1018.64 1018.40 1018.40 1018.40 1018.32 1018.28 1018.24 1018.20 1018.20 1018.00 1017.92 1018.00 1017.68 1017.60 1017.64 1017.48 1017.24 1016.96 1017.08 1017.12 1017.08 1017.36 1017.52 1017.64 1017.72 1017.80 1017.80 1017.84 1017.76 1017.84 1017.92
1018.20 1018.16 1018.28 1018.36 1018.36 1018.52 1018.68 1018.84 1018.84 1018.88 1018.92 1019.04 1019.24 1019.28 1019.32 1019.48 1019.68 1019.76 1019.76 1019.80 1019.88 1020.00 1020.08 1020.08 1020.12 1020.16 1020.20 1020.20 1020.12 1019.96 1019.96 1020.08 1020.04 1019.92 1019.80 1019.68 1019.44 1019.24 1019.20 1019.12 1019.04 1018.96 1018.88 1018.84 1018.88 1018.72 1018.64 1018.68 1018.64 1018.56 1018.48 1018.32 1018.12 1018.16 1018.08 1018.00 1017.92 1017.76 1017.80 1017.68 1017.44 1017.24 1017.00 1016.84 1017.36 1017.72 1017.76 1017.80 1017.80 1017.84 1017.80 1017.80 1017.72 1017.68
1018.48 1018.52 1018.60 1018.80 1018.88 1018.88 1018.96 1019.04 1019.08 1019.12 1019.16 1019.20 1019.24 1019.40 1019.52 1019.64 1019.80 1019.92 1020.04 1020.20 1020.28 1020.36 1020.40 1020.36 1020.32 1020.24 1020.20 1020.12 1020.08 1019.92 1019.96 1020.08 1020.00 1019.84 1019.80 1019.48 1019.12 1019.04 1019.08 1019.04 1019.00 1019.04 1019.04 1019.08 1019.16 1019.00 1018.92 1018.96 1018.80 1018.56 1018.44 1018.32 1018.24 1018.08 1017.84 1017.92 1018.00 1018.00 1017.84 1017.80 1017.64 1017.32 1017.04 1017.12 1017.20 1017.16 1017.24 1017.28 1017.48 1017.60 1017.64 1017.64 1017.60 1017.48
Wind_Speed
7 7 6 5 5 5 5 7 7 6 5 6 7 8 7 5 5 7 7 5 6 6 6 4 3 2 3 3 4 2 1 5 3 4 3 4 6 7 8 6 5 4 3 1 3 5 7 8 9 10 10 10 10 10 11 12 13 13 14 14 14 13 9 5 4 6 9 11 10 11 10 9 7 7
7 7 7 6 6 5 6 6 7 6 5 6 6 5 6 7 5 4 5 6 5 7 5 6 3 4 1 5 2 3 6 8 5 4 4 5 6 9 9 8 7 4 4 2 3 4 6 7 8 9 9 10 11 11 11 11 12 14 14 15 16 15 12 8 4 5 8 11 11 11 11 10 10 9
7 7 7 6 6 6 7 7 8 7 6 6 6 5 6 6 6 4 2 6 6 6 7 7 4 3 2 5 5 6 5 8 5 3 4 3 10 10 8 9 7 5 3 3 3 3 5 6 6 7 8 9 10 11 11 11 12 13 14 15 16 15 13 10 4 4 6 10 11 11 11 10 10 10
6 6 7 6 6 6 7 7 7 7 7 6 7 7 6 5 4 5 3 4 8 7 7 5 5 10 2 3 3 4 8 6 6 3 3 1 6 7 8 11 10 7 6 6 4 5 6 6 5 6 8 9 10 10 10 11 11 12 13 14 15 14 13 12 6 4 3 6 10 10 10 9 9 8
8 7 7 7 7 7 7 7 8 8 8 7 7 6 6 7 6 4 3 4 7 7 6 6 6 7 8 2 4 4 6 7 3 3 5 5 5 6 3 9 11 10 9 7 7 7 7 6 6 7 8 8 8 9 9 9 10 11 11 13 14 13 13 12 10 5 4 4 6 9 10 10 9 8
8 7 7 8 8 8 9 9 9 8 8 8 7 7 7 7 3 3 3 4 5 7 5 7 6 7 5 5 4 5 6 5 5 7 5 6 8 5 3 7 8 13 10 9 8 8 8 8 9 6 7 7 8 9 10 10 9 10 11 11 10 11 12 11 11 9 4 4 4 5 8 9 9 9
9 9 8 9 9 8 9 9 9 9 8 8 8 8 8 7 6 4 7 6 7 7 6 6 7 5 3 5 6 7 8 5 5 5 6 7 6 5 3 5 7 11 11 10 9 10 10 10 8 8 7 7 8 9 10 10 10 10 10 10 10 11 11 11 11 9 9 5 4 5 5 6 8 9
8 10 9 9 9 9 8 8 8 8 7 7 7 8 7 6 7 6 6 7 6 7 7 7 7 7 7 5 6 9 7 8 6 6 6 6 8 6 6 7 1 10 10 10 12 12 11 10 10 9 8 8 9 9 10 12 12 12 11 12 11 10 10 11 10 9 8 8 6 5 6 6 6 7
9 9 10 10 9 9 9 8 8 8 9 8 7 8 6 6 6 6 5 4 6 5 7 7 7 7 6 5 7 9 10 13 11 7 5 6 6 5 6 7 4 12 11 10 11 11 10 10 10 9 9 9 9 10 11 11 12 13 13 14 13 13 11 12 11 9 7 6 6 5 6 7 6 5
10 10 10 11 10 9 10 9 9 8 9 9 8 8 7 5 4 5 6 3 5 7 5 2 4 4 4 3 2 3 3 6 10 11 10 7 6 4 5 5 4 1 4 4 7 7 9 10 11 10 9 9 10 11 11 11 11 12 13 14 14 14 14 13 13 11 8 6 4 4 4 5 4 4
11 10 10 10 11 10 9 10 9 9 9 8 10 6 8 5 4 4 3 3 0 2 5 5 3 4 3 2 3 1 2 3 2 5 8 7 10 8 5 5 5 4 4 9 10 6 8 11 8 10 9 9 11 12 11 11 12 12 13 13 13 14 14 14 13 13 13 11 8 6 4 3 3 4
11 11 10 11 7 12 10 9 10 8 9 8 5 5 3 1 1 2 3 0 1 4 5 5 5 4 4 2 3 2 1 2 3 2 5 9 8 7 4 3 4 3 3 1 7 10 11 7 10 10 9 9 8 7 9 12 12 11 12 12 13 13 13 13 13 13 13 13 11 8 7 6 4 2
11 8 10 12 1 9 5 14 11 10 2 2 4 3 5 1 1 2 2 3 3 2 4 5 5 6 7 5 3 1 0 1 2 3 4 6 13 11 6 1 2 4 3 5 2 7 4 6 5 5 5 6 9 11 9 7 11 11 10 12 12 13 13 13 13 13 13 13 12 11 9 7 6 5
10 10 11 10 6 12 8 8 11 7 6 7 9 8 6 3 3 2 4 5 5 4 4 6 7 7 7 6 2 2 2 2 1 2 2 4 9 14 7 4 5 7 7 6 4 3 2 6 2 3 2 6 7 6 6 6 7 8 10 11 12 12 12 12 13 13 13 12 12 11 11 9 7 6
8 10 11 9 7 8 10 7 10 10 9 11 10 9 7 7 7 6 7 7 6 6 8 8 8 8 7 5 5 3 2 2 2 3 3 3 7 8 4 4 1 2 4 3 5 1 1 3 3 3 5 6 6 6 5 6 7 9 10 11 11 12 12 12 12 13 13 13 13 12 10 10 9 8
5 5 6 8 6 6 3 5 8 13 17 14 11 9 7 7 10 10 8 7 8 8 8 8 8 7 6 6 6 4 3 2 3 4 4 4 5 9 5 3 4 0 2 4 4 3 3 4 3 4 5 6 6 6 5 6 7 7 9 10 11 11 11 12 12 12 13 13 13 13 12 10 9 8
5 5 4 4 5 5 3 4 4 5 8 4 13 17 12 9 11 12 13 12 11 9 9 9 8 7 6 6 5 3 2 3 3 4 3 4 8 5 5 3 4 1 3 4 3 3 3 3 2 3 5 6 7 7 6 6 6 6 7 9 10 11 11 11 12 12 12 12 11 12 12 12 10 9
5 3 1 2 5 7 6 3 5 5 6 6 7 8 8 9 11 14 16 16 16 14 12 10 9 7 7 7 5 3 2 2 3 3 5 6 7 5 3 3 2 2 3 4 3 3 1 2 2 3 4 4 6 5 6 8 8 6 6 8 9 9 10 10 11 11 11 11 11 10 10 10 10 9
7 5 4 4 6 6 7 6 1 3 4 4 5 7 9 10 12 13 11 7 7 8 12 12 11 9 7 6 5 3 3 4 5 4 5 7 6 5 2 3 1 1 1 4 3 3 4 2 3 6 5 7 5 6 6 8 10 9 7 7 8 8 8 9 10 10 11 10 10 10 9 7 7 7
8 7 5 5 4 8 9 6 1 2 2 5 6 8 9 8 12 12 5 5 9 7 8 10 10 6 4 2 3 3 4 5 5 6 7 7 6 4 5 2 1 4 3 4 4 3 4 2 4 1 7 7 6 7 6 8 12 11 9 7 8 7 7 8 8 9 9 9 9 8 8 6 5 5
7 6 6 6 6 7 10 4 3 1 1 3 7 9 11 11 13 14 4 8 3 3 5 3 8 9 7 5 6 4 3 3 2 4 5 7 5 3 1 2 5 1 4 5 6 4 4 3 4 4 3 3 7 9 7 7 8 12 10 8 8 8 7 7 7 7 8 8 8 9 10 5 2 8
6 6 8 8 6 8 5 9 8 8 5 4 6 8 11 12 12 12 10 6 3 3 4 2 6 8 9 10 7 5 6 4 4 4 6 5 3 3 2 2 3 3 3 5 8 4 3 2 2 3 4 4 5 5 10 7 6 8 8 9 8 8 8 7 5 5 7 7 8 8 11 13 11 8
4 4 3 3 4 3 5 9 9 7 6 7 7 9 8 11 11 13 12 6 5 6 6 5 4 2 4 6 7 6 5 4 5 5 4 4 2 2 3 5 6 5 3 6 8 4 5 3 2 4 4 6 3 2 3 6 6 7 7 7 6 9 8 7 6 5 5 7 7 9 9 13 11 5
6 3 2 2 8 10 10 9 9 7 5 4 7 8 9 11 15 11 11 3 6 7 9 7 8 7 7 7 7 7 6 5 1 1 3 4 3 5 5 5 2 4 3 4 8 5 4 4 4 4 4 5 4 4 2 2 6 1 3 2 0 7 7 7 4 5 5 7 7 8 9 9 11 7
6 6 5 4 10 8 7 7 8 8 6 3 5 8 9 10 7 9 10 11 6 6 8 11 5 3 3 3 2 4 5 4 5 5 5 2 3 3 3 2 8 6 5 4 8 3 3 4 3 4 4 4 5 5 5 7 6 2 2 1 3 1 2 4 4 6 5 5 5 9 7 6 9 8
6 4 5 5 6 7 9 10 10 11 10 10 7 8 12 14 16 12 11 10 9 7 10 7 6 6 5 3 5 4 4 6 6 5 5 6 6 6 7 6 7 6 5 5 7 5 4 2 4 4 4 4 5 5 6 6 5 2 2 2 2 1 2 2 3 3 2 1 2 3 4 1 3 7
5 4 5 5 11 11 10 11 11 10 11 9 7 11 13 14 14 11 10 10 9 8 9 5 5 5 4 3 3 4 6 5 5 6 4 6 7 8 9 10 9 8 6 5 5 5 4 2 3 3 3 4 5 5 5 5 3 3 1 1 2 4 2 3 4 3 4 5 5 3 8 6 1 5
5 5 6 7 12 12 12 11 10 11 11 8 12 12 13 13 12 9 9 8 10 9 7 9 7 4 4 5 5 4 5 6 7 6 7 7 7 7 7 8 9 7 5 5 5 5 4 3 3 3 4 4 4 4 5 5 5 4 5 3 4 5 3 3 3 2 3 4 5 6 4 1 4 4
6 8 11 12 11 10 11 12 12 10 8 7 8 10 11 11 6 7 7 8 8 9 9 6 4 5 5 5 6 7 7 8 4 5 5 6 7 6 7 7 6 4 4 5 5 5 4 4 4 4 4 4 5 4 4 5 5 5 4 5 4 4 6 3 3 3 4 4 5 6 4 5 3 5
11 11 11 12 12 11 10 7 4 5 6 10 11 10 9 6 6 6 6 7 8 9 9 7 5 4 7 7 6 8 9 8 6 4 5 6 7 6 5 5 4 4 4 4 5 5 4 3 3 3 4 4 4 5 4 5 4 5 5 5 3 4 2 2 3 3 4 5 5 5 5 4 4 2
5 8 8 7 9 10 12 12 9 7 8 6 7 7 7 6 5 5 5 5 5 6 2 9 10 7 8 8 7 6 6 7 6 3 0 5 6 4 3 1 5 5 3 2 4 4 3 2 2 3 3 4 4 4 4 4 5 5 4 2 3 4 5 4 1 2 5 5 5 5 4 4 4 1
6 7 7 7 6 7 7 4 2 3 5 6 6 7 6 5 6 8 11 11 8 9 9 8 9 8 7 9 9 7 5 3 3 4 6 6 5 4 3 4 5 4 4 4 2 6 4 2 4 3 3 3 4 4 4 4 5 5 3 2 2 2 3 3 4 4 6 5 5 5 4 4 3 2
6 6 6 6 4 6 2 4 4 5 5 6 7 8 8 7 6 7 7 7 8 8 10 10 9 8 5 4 3 4 5 5 5 5 6 5 4 4 5 6 4 3 3 3 3 3 4 5 5 4 4 4 4 4 4 4 3 3 3 3 3 3 3 4 4 5 5 3 4 5 4 4 3 2
5 5 5 3 2 3 3 4 5 5 5 5 6 7 8 7 8 7 6 7 6 6 7 7 7 7 7 7 6 5 4 6 6 5 5 5 4 4 4 4 4 3 2 3 3 3 4 4 4 5 4 5 4 3 3 3 3 3 4 4 3 2 3 4 5 5 4 4 4 4 4 4 2 3
5 7 3 4 5 7 5 6 6 5 5 5 6 6 7 8 7 6 7 7 7 8 8 9 9 8 7 6 5 5 6 6 5 2 2 6 6 5 3 3 3 2 2 3 3 3 3 4 5 5 5 5 5 5 5 3 4 3 2 2 3 4 4 4 5 5 5 5 3 4 5 3 3 4
4 6 8 7 8 8 8 7 6 6 5 5 5 5 6 7 7 8 8 7 8 8 8 8 8 7 5 5 4 2 3 3 3 3 5 3 2 1 2 3 2 2 2 3 4 4 3 3 4 5 5 3 5 5 4 2 1 4 3 2 3 3 4 5 5 5 5 4 4 3 5 4 4 4
8 7 7 7 8 7 7 7 7 7 6 4 5 5 6 7 7 7 7 6 8 8 7 7 6 6 6 3 2 2 2 2 3 2 3 2 2 3 3 2 2 2 3 3 4 4 2 3 3 4 4 5 5 2 7 4 1 6 1 3 2 3 4 3 4 4 5 6 5 4 4 5 4 5
7 6 6 7 6 6 7 7 7 6 6 7 6 7 8 7 6 6 7 7 8 7 7 7 6 6 5 3 2 2 2 2 3 5 5 5 5 4 4 3 4 4 5 4 3 2 1 2 2 3 4 4 4 4 2 3 4 3 1 2 1 3 1 3 4 4 5 4 5 5 6 5 5 5
6 6 6 6 6 6 6 6 7 7 7 8 8 8 7 7 7 7 7 7 7 6 6 7 7 6 6 5 4 3 4 6 6 6 6 5 5 5 5 6 6 6 6 4 3 1 0 1 3 3 3 4 5 4 5 5 5 3 7 4 1 2 4 5 5 5 4 5 6 6 6 5 7 10
6 7 7 6 6 6 6 6 7 6 7 7 7 7 7 7 7 7 7 8 8 8 8 8 9 8 8 8 8 5 6 6 5 5 5 4 3 4 4 6 6 5 4 4 4 3 2 3 4 4 4 5 5 4 5 5 7 7 3 3 2 3 3 2 4 4 4 4 5 5 6 5 5 6
6 6 7 7 7 7 7 7 6 7 7 7 7 8 8 8 8 8 8 8 8 8 8 8 8 8 8 8 8 7 6 6 6 6 6 6 6 6 5 4 5 4 4 4 4 3 4 4 2 3 5 5 5 6 7 7 6 3 6 6 2 4 2 3 2 3 4 4 4 6 6 5 6 5
6 6 7 7 7 6 6 6 6 7 6 6 6 6 7 7 7 9 8 9 8 8 8 8 7 7 6 6 6 5 5 4 4 5 5 4 4 4 5 5 4 5 4 4 5 5 5 3 2 2 3 4 5 5 5 4 4 4 6 2 5 5 7 9 7 4 3 2 3 5 5 6 6 5
6 7 6 6 7 7 6 6 6 5 5 5 5 5 6 6 5 6 6 7 7 7 7 6 6 6 6 6 6 5 5 5 5 4 3 3 3 3 3 3 4 4 4 4 2 2 3 3 2 3 3 4 4 3 5 4 4 5 4 5 3 3 6 11 6 0 4 5 4 2 2 4 5 5
5 6 6 6 6 6 6 6 6 5 5 5 5 5 5 5 6 6 6 5 5 5 4 4 3 3 2 2 2 2 2 2 3 2 3 3 3 2 2 3 3 3 3 4 4 5 5 5 5 6 6 5 4 4 5 5 4 4 5 6 6 6 7 3 4 3 1 3 3 3 4 4 5 5
4 4 4 4 4 4 5 5 5 5 5 4 4 5 5 5 5 5 5 5 5 4 3 3 2 2 2 3 3 3 2 2 3 2 2 3 1 0 0 1 1 2 2 3 4 4 4 5 4 4 4 4 5 5 5 5 5 5 5 5 6 6 6 5 6 5 5 5 8 9 9 8 9 10
Wind_Direction
282 278 268 268 269 275 290 288 291 291 300 297 304 299 298 297 276 289 301 308 322 329 307 294 123 320 317 292 309 56 118 275 304 303 329 290 140 150 162 174 197 202 180 338 346 355 7 9 8 10 6 6 7 4 1 356 359 1 358 357 355 352 346 320 199 178 169 166 161 166 176 180 179 182
266 263 266 273 277 278 281 278 285 298 296 284 288 331 318 296 273 285 304 304 297 295 332 316 31 319 334 283 188 239 270 173 227 278 253 295 117 159 172 181 203 201 186 111 34 29 26 22 18 13 8 6 6 9 7 6 6 3 360 359 360 354 350 329 230 182 165 165 163 168 173 177 178 182
259 262 270 271 268 274 283 291 285 284 288 283 278 266 265 265 291 304 270 304 300 317 307 326 324 244 263 313 349 291 229 165 219 273 304 302 126 175 177 188 192 201 193 118 83 58 52 38 20 21 15 10 14 14 14 16 15 10 4 1 2 358 353 351 293 222 171 165 166 170 174 180 180 185
257 255 255 254 260 274 274 277 284 277 268 269 272 281 287 304 347 326 292 244 277 294 300 295 302 295 252 193 290 318 304 149 207 322 273 243 166 216 201 175 177 185 191 150 133 106 78 57 41 31 25 23 21 18 18 19 20 19 11 5 1 357 357 357 338 266 230 178 177 171 176 181 188 189
261 266 266 269 271 271 270 270 271 273 276 270 265 255 251 254 246 241 258 267 279 284 283 285 283 270 265 239 214 259 283 287 258 256 274 230 251 281 283 161 168 180 183 157 149 120 95 84 69 47 39 33 22 19 18 16 21 23 19 16 9 359 1 3 354 332 280 232 198 176 175 180 189 190
259 264 259 258 262 251 255 262 263 268 270 271 263 257 253 261 208 167 189 239 255 278 291 289 278 278 324 296 239 246 266 276 284 281 299 303 275 266 323 155 169 181 175 172 151 118 108 104 78 62 56 39 28 23 16 17 20 24 28 25 14 8 3 9 4 351 332 267 240 195 181 178 189 193
250 249 255 257 250 255 255 250 256 263 270 271 277 277 278 280 275 220 170 225 258 271 281 273 276 280 303 303 313 310 279 277 274 277 278 284 304 308 311 309 160 180 171 170 141 117 117 106 102 89 66 51 44 27 20 15 16 24 25 25 21 14 4 3 15 1 342 321 246 241 217 193 187 195
243 245 248 251 256 260 261 263 272 271 276 279 272 276 271 266 262 279 297 286 274 279 295 300 299 311 311 301 290 279 304 295 299 302 310 300 293 313 317 300 41 169 177 167 133 126 121 120 111 94 75 69 56 44 33 18 12 17 20 21 19 16 9 6 9 15 355 332 301 238 231 232 208 197
254 255 250 251 252 250 254 263 258 257 256 256 262 262 265 265 270 263 258 272 281 280 292 324 335 354 322 24 332 351 347 326 309 285 264 287 287 287 313 310 74 149 177 142 130 128 133 130 121 101 88 80 68 56 42 29 18 17 18 17 16 14 8 8 5 7 11 350 328 281 232 227 235 230
245 252 252 248 252 256 254 256 256 253 258 258 262 263 260 259 282 298 272 291 350 339 329 347 293 295 297 335 327 312 346 307 320 324 310 298 300 310 297 297 327 238 155 185 136 122 138 128 131 121 108 92 80 65 49 38 29 24 22 18 17 16 13 10 7 2 4 13 1 339 289 247 234 240
254 247 249 258 249 253 253 255 256 256 251 256 260 284 278 273 283 268 294 75 272 295 302 304 282 281 277 212 253 171 241 271 273 314 324 340 313 307 289 307 307 20 320 74 102 137 132 137 129 132 126 109 92 78 61 45 35 29 27 25 23 21 19 16 12 12 12 23 24 23 13 326 258 219
253 252 253 245 251 261 261 246 250 271 269 265 270 250 270 1 213 239 270 23 179 217 245 255 259 265 283 243 203 175 207 311 318 333 353 310 306 276 270 305 320 316 330 319 106 104 105 103 119 134 135 124 117 112 95 59 38 26 29 33 30 30 25 21 20 20 21 21 28 31 29 30 7 310
264 260 262 266 143 287 248 279 271 250 291 340 264 256 272 245 128 241 243 246 236 248 264 270 256 257 266 266 264 273 210 156 303 355 1 315 284 292 284 233 314 311 314 322 86 139 176 151 158 154 150 132 104 71 40 56 48 27 30 37 38 36 32 27 25 26 28 26 24 24 30 43 53 30
260 275 272 276 225 227 254 259 271 259 261 252 277 280 285 237 222 219 250 249 249 258 256 258 266 272 271 277 233 219 204 159 154 267 239 246 282 280 305 345 31 319 342 342 334 6 139 139 130 210 141 90 66 57 46 33 21 25 32 40 41 38 37 36 32 29 31 32 31 30 29 34 52 71
264 263 279 287 346 346 291 296 323 291 230 235 240 253 252 260 258 262 253 248 246 244 255 263 265 260 270 282 276 215 214 152 194 232 264 291 277 281 282 282 199 272 310 323 319 351 309 104 123 87 73 64 64 69 58 22 34 32 37 42 44 41 39 40 41 36 34 32 31 31 34 39 43 50
290 322 285 277 283 281 6 16 345 327 312 296 298 275 254 230 243 253 259 257 251 246 255 263 265 268 269 263 243 227 182 190 193 202 221 233 268 277 292 283 315 39 0 318 311 297 71 75 113 126 108 88 79 74 90 66 46 40 40 45 45 44 42 41 41 41 39 36 32 29 28 32 43 54
241 242 279 327 329 304 268 137 192 213 264 285 248 251 251 251 240 238 244 248 251 253 249 252 256 256 271 260 229 206 189 161 236 267 282 257 253 279 303 317 304 356 326 301 306 338 62 122 152 140 128 130 129 131 105 93 78 55 53 49 51 48 47 45 43 41 39 38 35 33 30 27 27 41
252 243 162 266 263 268 277 213 192 208 247 258 288 285 274 267 265 248 233 233 234 240 250 251 245 249 242 243 237 215 220 226 254 273 281 288 286 294 326 353 4 9 351 335 342 313 290 155 150 151 140 114 114 106 130 132 106 90 70 63 60 59 55 51 48 45 42 37 35 31 32 30 26 26
269 250 230 239 254 263 260 255 288 155 198 246 285 292 282 275 277 274 260 257 266 260 247 243 247 250 251 260 245 187 169 191 220 235 261 262 276 288 236 110 327 186 26 348 341 327 316 235 174 159 170 154 136 128 151 149 127 114 101 89 80 74 69 62 58 52 47 43 37 32 24 32 29 26
259 253 238 231 251 272 277 266 97 45 340 308 284 280 285 276 260 264 130 161 224 238 282 268 254 247 266 271 229 182 193 199 203 233 248 282 277 262 260 189 220 253 111 25 8 333 320 348 329 342 161 164 156 156 150 177 145 140 133 125 109 96 86 81 77 69 58 46 38 36 37 22 36 53
250 255 255 249 231 253 265 310 37 57 99 250 271 276 283 283 282 283 256 219 237 301 201 102 82 85 89 83 102 118 229 276 257 247 248 245 247 282 338 275 238 199 62 26 6 330 299 347 345 315 320 197 172 167 163 161 174 150 153 146 137 119 104 97 86 82 74 61 45 27 16 39 252 169
254 259 279 284 282 282 300 29 9 355 347 305 274 270 271 275 282 281 274 246 114 81 359 41 106 124 126 126 126 180 199 180 227 221 244 255 264 241 250 3 13 124 58 32 348 330 293 21 327 352 308 287 266 179 155 160 149 157 161 163 158 157 143 123 108 91 88 69 49 34 17 2 349 184
251 252 237 272 295 307 10 1 352 349 322 284 271 265 271 273 265 263 261 265 173 213 206 227 197 178 183 176 193 175 176 190 200 225 233 260 180 204 231 151 176 165 90 19 347 337 327 348 17 19 333 320 338 69 124 148 166 179 176 165 186 183 167 155 143 127 108 89 58 45 25 10 354 351
276 270 276 101 65 41 32 18 11 8 9 306 280 266 267 272 275 287 295 264 241 247 235 245 239 218 200 218 197 167 166 172 133 336 236 228 202 194 192 217 90 96 80 40 352 339 329 1 354 15 338 322 307 341 292 177 198 161 73 10 51 187 188 150 179 190 158 111 97 64 30 22 12 7
298 297 311 80 54 33 13 359 352 343 338 305 289 284 257 254 276 306 281 271 229 253 267 255 233 249 256 248 62 69 50 50 49 9 346 63 53 40 29 341 115 100 89 33 329 4 342 352 352 353 337 317 304 307 343 327 306 304 113 140 329 79 337 206 182 165 200 153 154 107 68 14 20 23
292 324 323 92 42 19 353 346 345 334 325 319 299 272 274 289 301 300 295 284 280 275 262 237 216 211 214 187 121 103 89 89 77 21 9 26 52 58 65 59 100 110 84 55 6 28 349 12 19 339 340 327 320 321 308 299 278 87 46 352 298 228 176 358 4 3 27 58 231 66 118 114 315 47
327 340 333 22 12 355 341 332 328 317 309 299 295 306 302 290 281 282 272 271 269 274 262 236 232 193 159 159 150 130 120 110 100 104 76 59 56 59 61 70 77 87 87 64 47 37 10 3 16 9 346 337 309 299 284 290 339 37 253 165 7 320 132 47 350 27 24 349 339 125 142 161 85 50
335 336 350 345 334 316 314 307 301 298 297 292 298 296 291 286 281 269 266 257 258 254 251 253 214 204 170 151 153 124 111 98 91 87 90 86 78 75 78 78 83 92 99 89 70 51 33 4 353 36 338 317 307 307 313 320 310 339 334 17 345 306 25 35 351 27 28 0 342 350 355 84 166 173
336 328 314 305 299 298 297 295 283 281 285 296 291 288 281 283 267 258 257 257 252 248 244 219 213 206 199 137 112 113 96 83 72 90 77 88 90 91 88 89 100 108 107 100 95 76 55 26 5 351 327 304 294 302 310 310 312 309 340 350 297 1 346 1 6 7 34 3 355 339 347 347 3 1
288 287 287 289 284 281 273 271 318 342 318 287 283 274 275 287 272 258 254 262 256 255 247 235 236 81 71 68 83 94 102 103 106 94 131 127 123 124 125 114 103 110 103 128 108 73 45 48 16 347 310 301 299 302 302 302 307 318 315 291 348 304 218 36 4 340 42 24 349 332 328 334 335 6
311 308 300 295 296 289 293 290 276 265 276 329 2 356 352 345 325 282 270 275 292 282 235 90 90 88 93 91 85 62 69 81 84 80 286 103 88 74 38 110 130 122 99 102 103 63 25 57 12 356 316 310 312 303 319 316 294 291 276 333 11 319 357 312 347 355 40 16 343 311 328 324 311 188
304 294 289 277 261 264 251 244 336 10 15 21 16 12 12 10 14 33 56 59 51 63 81 79 86 94 98 106 115 129 133 127 119 104 79 71 75 85 102 80 57 18 49 5 78 131 152 76 15 341 326 304 295 310 313 296 285 277 301 1 329 334 311 331 2 18 27 0 325 323 316 309 303 322
300 280 271 282 245 209 297 36 25 16 19 39 28 31 37 33 31 39 49 67 76 87 91 95 97 101 106 85 74 85 82 76 75 76 79 71 76 73 53 75 63 63 10 7 351 355 16 9 349 329 292 293 276 274 287 293 299 347 350 1 341 316 324 10 8 21 0 326 324 314 345 307 285 354
283 278 271 275 344 334 2 33 33 19 30 38 44 45 41 46 50 46 51 57 63 68 79 88 94 92 90 85 72 75 81 94 98 107 128 147 144 108 82 82 71 47 8 330 320 354 11 352 327 301 263 238 220 227 260 290 323 341 5 329 321 332 12 354 12 2 348 322 312 331 340 319 333 28
237 256 274 1 6 16 15 36 28 31 41 53 61 64 65 65 57 52 57 58 60 64 70 68 69 67 70 96 119 116 117 121 118 99 9 44 45 48 67 75 81 69 356 304 321 355 353 341 332 312 277 195 201 177 52 17 323 359 330 313 20 358 351 3 359 340 319 293 348 348 308 314 357 10
333 27 30 24 30 28 29 34 34 37 52 70 75 82 80 74 77 84 80 69 74 70 70 74 75 70 48 38 34 83 100 103 98 75 74 45 1 27 59 78 66 60 345 312 333 336 348 337 330 318 311 294 246 195 173 58 351 356 328 354 9 1 9 357 348 319 306 335 7 315 300 336 349 354
33 25 26 27 28 28 28 29 29 29 26 50 73 77 83 80 75 72 67 68 82 83 84 86 80 79 79 69 37 30 31 354 64 148 149 130 95 32 20 23 28 9 318 333 325 317 330 331 315 311 321 306 295 331 120 154 250 307 3 4 348 33 354 350 328 325 351 348 321 314 340 335 336 319
36 35 33 35 33 33 31 28 33 36 20 22 46 66 73 73 64 57 53 48 41 47 42 48 52 57 55 39 54 36 358 17 50 40 40 47 34 26 10 356 350 339 332 317 309 308 340 301 309 1 328 324 310 321 131 150 161 127 22 303 327 341 321 6 344 357 336 331 321 348 347 316 306 306
39 45 43 43 44 43 48 47 38 42 40 33 26 26 31 32 29 33 43 49 45 43 44 47 54 54 49 36 30 357 2 11 18 34 23 33 37 10 2 11 350 334 327 317 312 300 268 304 40 20 355 328 318 340 336 329 315 335 180 229 38 279 9 5 341 343 343 329 345 342 304 290 283 253
44 43 44 45 45 48 53 59 55 48 50 51 46 35 32 33 33 32 37 36 35 34 40 35 30 32 35 24 11 23 42 32 28 31 36 17 27 359 11 2 329 318 307 321 322 354 0 45 49 21 341 306 301 295 292 285 286 275 208 112 68 39 24 22 348 342 321 343 329 308 318 326 322 350
45 43 46 45 47 48 54 63 66 60 53 50 54 51 47 41 46 45 41 44 41 42 46 42 38 34 31 27 25 25 35 28 28 25 14 2 9 10 4 326 312 328 346 337 333 340 36 39 53 194 261 277 266 261 256 253 260 304 129 152 157 158 84 344 12 331 316 332 325 329 317 333 341 338
45 50 48 42 43 49 51 52 56 59 59 56 53 55 53 53 53 52 50 44 44 43 43 39 35 34 36 30 26 29 38 31 21 14 5 358 355 347 344 333 330 357 351 338 355 1 359 344 337 290 239 253 275 288 301 331 331 339 348 342 154 207 199 207 207 235 28 358 318 324 334 330 345 330
39 42 41 48 49 45 46 49 58 68 75 68 64 64 70 65 55 51 53 51 48 49 46 42 34 30 26 25 21 14 16 20 7 352 350 344 339 329 329 349 3 352 337 320 319 316 309 318 299 296 304 294 291 312 306 330 341 337 314 301 333 163 215 215 228 68 75 50 37 358 353 338 335 333
33 32 38 30 36 44 46 43 47 53 59 63 61 58 58 68 65 54 49 52 53 49 48 45 45 37 26 20 358 6 14 359 325 311 324 320 318 342 352 348 353 353 336 346 344 340 350 347 344 338 326 320 340 327 326 333 316 323 317 321 312 310 309 348 118 120 24 183 223 268 289 209 227 256
30 39 43 55 48 43 36 38 43 44 48 61 71 68 66 67 67 63 57 51 51 37 29 14 8 3 357 0 340 331 337 276 264 283 286 279 279 283 70 334 356 10 351 3 336 333 339 334 312 298 300 313 316 301 291 308 316 311 308 301 298 301 310 311 305 299 272 242 201 211 228 242 246 251